Latest Coastal Weather Observations for Warrnambool

IDV60701

Issued at 5:55 am EDT Saturday 25 October 2014 (issued every 10 minutes, with the page automatically refreshed every 10 minutes)

About coastal observations | Map of coastal stations | Coastal observations for VIC | Marine services | Other Formats
Station Details ID: 090186 Name: WARRNAMBOOL AIRPORT NDB Lat: -38.29 Lon: 142.45 Height: 70.8 m
Data from the previous 72 hours. | See also: Recent months at Warrnambool
Date/Time
EDT
Temp

°C
Wind Pressure Rain
since 9am
mm
Weather Cloud Vis
km
Sea
Height
m
Swell
Dir
 
Speed
knots
Gust
knots
hPa Trend Height
m
Period
s
Dir
25/05:30am 12.3 SSE 3 4 1016.8 - 0.0 - - - - - - -
25/05:00am 12.6 S 5 7 1016.7 - 0.0 - - - - - - -
25/04:30am 12.7 ESE 3 4 1016.4 - 0.0 - - - - - - -
25/04:00am 12.5 SSE 3 4 1016.2 - 0.0 - - - - - - -
25/03:30am 12.5 S 4 6 1016.3 - 0.0 - - - - - - -
25/03:00am 12.4 S 4 5 1016.3 - 0.0 - - - - - - -
25/02:30am 12.4 S 4 5 1016.6 - 0.0 - - - - - - -
25/02:00am 12.4 SW 6 8 1016.9 - 0.0 - - - - - - -
25/01:30am 12.4 SSW 7 9 1017.2 - 0.0 - - - - - - -
25/01:00am 12.5 S 6 8 1017.3 - 0.0 - - - - - - -
25/12:30am 12.7 SW 6 10 1017.4 - 0.0 - - - - - - -
25/12:00am 12.8 WSW 9 11 1017.1 - 0.0 - - - - - - -
 
Date/Time
EDT
Temp

°C
Wind Pressure Rain
since 9am
mm
Weather Cloud Vis
km
Sea
Height
m
Swell
Dir
 
Speed
knots
Gust
knots
hPa Trend Height
m
Period
s
Dir
24/11:30pm 13.3 SW 12 16 1017.2 - 0.0 - - - - - - -
24/11:00pm 13.6 WSW 10 15 1016.9 - 0.0 - - - - - - -
24/10:30pm 13.6 SW 10 14 1016.7 - 0.0 - - - - - - -
24/10:00pm 13.7 WSW 13 17 1016.4 - 0.0 - - - - - - -
24/09:30pm 13.8 WSW 12 15 1016.3 - 0.0 - - - - - - -
24/09:00pm 13.9 WSW 13 17 1015.9 - 0.0 - - - - - - -
24/08:30pm 13.9 WSW 11 14 1015.6 - 0.0 - - - - - - -
24/08:00pm 14.0 WSW 12 17 1015.3 - 0.0 - - - - - - -
24/07:30pm 14.4 WSW 12 17 1014.7 - 0.0 - - - - - - -
24/07:00pm 15.1 WSW 14 19 1014.2 - 0.0 - - - - - - -
24/06:30pm 15.9 SW 15 19 1013.7 - 0.0 - - - - - - -
24/06:00pm 15.9 SW 18 23 1013.5 - 0.0 - - - - - - -
24/05:30pm 17.0 SW 17 21 1012.9 - 0.0 - - - - - - -
24/05:00pm 17.5 SW 16 21 1012.5 - 0.0 - - - - - - -
24/04:30pm 19.9 WSW 13 15 1012.3 - 0.0 - - - - - - -
24/04:00pm 19.4 SW 17 22 1012.1 - 0.0 - - - - - - -
24/03:30pm 20.5 SSW 13 16 1011.6 - 0.0 - - - - - - -
24/03:00pm 20.7 SSW 12 15 1011.5 - 0.0 - - - - - - -
24/02:30pm 20.1 SW 13 16 1011.9 - 0.0 - - - - - - -
24/02:00pm 20.8 SW 14 18 1011.8 - 0.0 - - - - - - -
24/01:30pm 21.2 SW 13 17 1011.8 - 0.0 - - - - - - -
24/01:00pm 20.9 SW 13 20 1011.9 - 0.0 - - - - - - -
24/12:30pm 24.0 NW 13 17 1012.0 - 0.0 - - - - - - -
24/12:00pm 23.7 NW 10 17 1012.0 - 0.0 - - - - - - -
24/11:30am 22.7 W 14 19 1012.4 - 0.0 - - - - - - -
24/11:00am 22.1 NW 10 13 1012.0 - 0.0 - - - - - - -
24/10:30am 21.2 WNW 9 11 1012.0 - 0.0 - - - - - - -
24/10:00am 20.2 NW 9 13 1011.9 - 0.0 - - - - - - -
24/09:30am 17.6 N 9 11 1012.1 - 0.0 - - - - - - -
24/09:00am 16.9 N 10 13 1012.2 - 0.0 - - - - - - -
24/08:30am 15.1 N 10 14 1012.3 - 0.0 - - - - - - -
24/08:00am 14.6 NNE 11 15 1011.9 - 0.0 - - - - - - -
24/07:30am 14.1 NNE 14 18 1011.6 - 0.0 - - - - - - -
24/07:00am 14.1 NNE 10 15 1011.8 - 0.0 - - - - - - -
24/06:30am 14.2 NNE 11 17 1011.6 - 0.0 - - - - - - -
24/06:00am 14.4 NE 10 16 1011.6 - 0.0 - - - - - - -
24/05:30am 14.6 NE 12 16 1011.9 - 0.0 - - - - - - -
24/05:00am 14.7 NE 10 13 1011.8 - 0.0 - - - - - - -
24/04:30am 14.7 NE 10 14 1011.9 - 0.0 - - - - - - -
24/04:00am 14.7 ENE 11 17 1012.2 - 0.0 - - - - - - -
24/03:30am 14.8 ENE 10 14 1012.5 - 0.0 - - - - - - -
24/03:00am 14.9 ENE 10 15 1013.0 - 0.0 - - - - - - -
24/02:30am 15.1 ENE 10 14 1013.4 - 0.0 - - - - - - -
24/02:00am 15.3 ENE 10 16 1013.6 - 0.0 - - - - - - -
24/01:30am 15.4 ENE 11 18 1013.9 - 0.0 - - - - - - -
24/01:00am 15.6 ENE 11 18 1014.3 - 0.0 - - - - - - -
24/12:30am 15.8 ENE 11 19 1014.9 - 0.0 - - - - - - -
24/12:00am 15.9 ENE 11 17 1015.2 - 0.0 - - - - - - -
 
Date/Time
EDT
Temp

°C
Wind Pressure Rain
since 9am
mm
Weather Cloud Vis
km
Sea
Height
m
Swell
Dir
 
Speed
knots
Gust
knots
hPa Trend Height
m
Period
s
Dir
23/11:30pm 15.8 ENE 9 14 1015.4 - 0.0 - - - - - - -
23/11:00pm 15.6 E 10 15 1015.5 - 0.0 - - - - - - -
23/10:30pm 15.7 E 9 13 1015.8 - 0.0 - - - - - - -
23/10:00pm 15.6 E 8 11 1016.2 - 0.0 - - - - - - -
23/09:30pm 16.2 E 10 15 1016.1 - 0.0 - - - - - - -
23/09:00pm 16.5 E 8 14 1015.9 - 0.0 - - - - - - -
23/08:30pm 16.4 E 9 13 1015.7 - 0.0 - - - - - - -
23/08:00pm 16.0 E 10 14 1015.9 - 0.0 - - - - - - -
23/07:30pm 16.6 ENE 10 14 1015.8 - 0.0 - - - - - - -
23/07:00pm 17.6 ESE 4 5 1015.7 - 0.0 - - - - - - -
23/06:30pm 17.2 S 8 10 1015.5 - 0.0 - - - - - - -
23/06:00pm 17.4 S 9 13 1015.5 - 0.0 - - - - - - -
23/05:30pm 17.3 S 9 14 1015.6 - 0.0 - - - - - - -
23/05:00pm 17.0 SSE 11 17 1015.8 - 0.0 - - - - - - -
23/04:30pm 16.9 SSE 12 15 1016.2 - 0.0 - - - - - - -
23/04:00pm 17.5 S 12 15 1016.5 - 0.0 - - - - - - -
23/03:30pm 17.8 SSE 11 14 1016.7 - 0.0 - - - - - - -
23/03:00pm 17.4 S 10 13 1017.0 - 0.0 - - - - - - -
23/02:30pm 18.4 S 9 12 1017.4 - 0.0 - - - - - - -
23/02:00pm 18.6 ESE 7 12 1017.8 - 0.0 - - - - - - -
23/01:30pm 17.3 ESE 7 12 1018.3 - 0.0 - - - - - - -
23/01:00pm 15.9 SE 8 11 1018.8 - 0.0 - - - - - - -
23/12:30pm 15.3 SE 9 15 1019.1 - 0.0 - - - - - - -
23/12:00pm 14.5 SE 9 15 1019.5 - 0.0 - - - - - - -
23/11:30am 14.2 SE 12 16 1020.0 - 0.0 - - - - - - -
23/11:00am 13.8 SE 12 16 1020.1 - 0.0 - - - - - - -
23/10:30am 13.9 SE 11 16 1020.6 - 0.0 - - - - - - -
23/10:00am 13.6 SE 9 14 1020.8 - 0.0 - - - - - - -
23/09:30am 13.5 SE 9 14 1020.7 - 0.0 - - - - - - -
23/09:00am 13.4 SE 11 17 1020.7 - 0.0 - - - - - - -
23/08:30am 13.2 SE 9 13 1020.9 - 0.0 - - - - - - -
23/08:00am 13.1 SE 9 12 1020.9 - 0.0 - - - - - - -
23/07:30am 12.8 SE 9 11 1020.7 - 0.0 - - - - - - -
23/07:00am 12.7 SE 9 12 1020.3 - 0.0 - - - - - - -
23/06:30am 12.7 SE 11 16 1020.3 - 0.0 - - - - - - -
23/06:00am 12.7 SE 10 14 1020.1 - 0.0 - - - - - - -
23/05:30am 12.5 SSE 11 15 1020.3 - 0.0 - - - - - - -
23/05:00am 12.5 SSE 11 15 1020.1 - 0.0 - - - - - - -
23/04:30am 12.6 SSE 12 15 1019.9 - 0.0 - - - - - - -
23/04:00am 12.6 SSE 11 15 1020.0 - 0.0 - - - - - - -
23/03:30am 12.7 S 12 17 1020.0 - 0.0 - - - - - - -
23/03:00am 12.8 SSE 11 14 1020.2 - 0.0 - - - - - - -
23/02:30am 12.9 SSE 12 18 1020.3 - 0.0 - - - - - - -
23/02:00am 12.9 SSE 12 16 1020.3 - 0.0 - - - - - - -
23/01:30am 13.0 SSE 14 18 1020.5 - 0.0 - - - - - - -
23/01:00am 12.9 S 13 18 1020.6 - 0.0 - - - - - - -
23/12:30am 12.8 S 13 17 1020.5 - 0.0 - - - - - - -
23/12:00am 12.9 S 10 14 1020.7 - 0.0 - - - - - - -
 
Date/Time
EDT
Temp

°C
Wind Pressure Rain
since 9am
mm
Weather Cloud Vis
km
Sea
Height
m
Swell
Dir
 
Speed
knots
Gust
knots
hPa Trend Height
m
Period
s
Dir
22/11:30pm 12.9 S 11 15 1020.8 - 0.0 - - - - - - -
22/11:00pm 13.0 S 9 12 1020.6 - 0.0 - - - - - - -
22/10:30pm 12.9 S 13 16 1020.5 - 0.0 - - - - - - -
22/10:00pm 13.1 S 13 16 1020.5 - 0.0 - - - - - - -
22/09:30pm 13.3 S 12 17 1020.6 - 0.0 - - - - - - -
22/09:00pm 13.3 S 12 16 1020.5 - 0.0 - - - - - - -
22/08:30pm 13.4 S 11 15 1020.2 - 0.0 - - - - - - -
22/08:00pm 13.4 S 12 16 1019.8 - 0.0 - - - - - - -
22/07:30pm 13.5 SSW 12 15 1019.8 - 0.0 - - - - - - -
22/07:00pm 13.7 SSW 14 18 1018.6 - 0.0 - - - - - - -
22/06:30pm 14.0 SSW 13 17 1018.1 - 0.0 - - - - - - -
22/06:00pm 14.5 SSW 13 17 1017.2 - 0.0 - - - - - - -
22/05:30pm 15.3 SSW 14 18 1017.1 - 0.0 - - - - - - -
22/05:00pm 16.0 SSW 14 17 1017.2 - 0.0 - - - - - - -
22/04:30pm 16.8 SSW 17 21 1017.4 - 0.0 - - - - - - -
22/04:00pm 19.5 SW 15 19 1016.9 - 0.0 - - - - - - -
22/03:30pm 22.7 SW 14 18 1016.6 - 0.0 - - - - - - -
22/03:00pm 24.7 SW 13 19 1016.5 - 0.0 - - - - - - -
22/02:30pm 22.8 SSW 13 18 1016.7 - 0.0 - - - - - - -
22/02:00pm 24.6 SSW 14 18 1016.6 - 0.0 - - - - - - -
22/01:30pm 25.9 SSW 9 14 1016.5 - 0.0 - - - - - - -
22/01:00pm 25.9 SSW 10 13 1016.6 - 0.0 - - - - - - -
22/12:30pm 25.9 W 7 11 1016.8 - 0.0 - - - - - - -
22/12:00pm 24.4 NNE 8 10 1016.3 - 0.0 - - - - - - -
22/11:30am 24.0 NE 4 6 1016.8 - 0.0 - - - - - - -
22/11:00am 23.8 NE 5 6 1017.2 - 0.0 - - - - - - -
22/10:30am 23.2 NNE 5 8 1017.4 - 0.0 - - - - - - -
22/10:00am 22.2 NNE 5 7 1017.6 - 0.0 - - - - - - -
22/09:30am 21.6 NE 2 4 1017.8 - 0.0 - - - - - - -
22/09:00am 20.5 ESE 2 4 1017.7 - 0.0 - - - - - - -
22/08:30am 18.7 NE 5 7 1017.6 - 0.0 - - - - - - -
22/08:00am 16.9 NNE 7 9 1017.2 - 0.0 - - - - - - -
22/07:30am 13.8 ESE 1 5 1017.3 - 0.0 - - - - - - -
22/07:00am 14.0 N 11 13 1017.3 - 0.0 - - - - - - -
22/06:30am 14.2 N 11 13 1017.0 - 0.0 - - - - - - -
22/06:00am 14.9 N 13 16 1016.8 - 0.0 - - - - - - -

Other Formats:

Comma delimited format used in spreadsheet applications
http://www.bom.gov.au/fwo/IDV60701/IDV60701.94837.axf

JavaScript Object Notation format (JSON) in row-major order
http://www.bom.gov.au/fwo/IDV60701/IDV60701.94837.json